EDT,Max TemperatureF,Mean TemperatureF,Min TemperatureF,Max Dew PointF,MeanDew PointF,Min DewpointF,Max Humidity, Mean Humidity, Min Humidity, Max Sea Level PressureIn, Mean Sea Level PressureIn, Min Sea Level PressureIn, Max VisibilityMiles, Mean VisibilityMiles, Min VisibilityMiles, Max Wind SpeedMPH, Mean Wind SpeedMPH, Max Gust SpeedMPH,PrecipitationIn, CloudCover, Events, WindDirDegrees
2012-4-1,53,46,39,40,37,32,87,75,58,29.90,29.79,29.73,10,7,2,13,7,18,0.00,6,,229
2012-4-2,53,44,35,36,33,27,93,75,50,30.11,30.04,29.91,10,9,6,16,7,,0.00,2,,70
2012-4-3,63,50,37,44,34,23,80,59,48,30.06,29.96,29.88,10,10,9,18,7,22,0.00,4,Rain,6
2012-4-4,60,47,35,38,31,24,89,58,27,29.99,29.96,29.92,10,10,10,16,10,22,0.00,0,,4
2012-4-5,45,40,34,30,27,22,75,64,51,30.21,30.10,29.99,10,10,10,17,11,21,0.00,4,,40
2012-4-6,55,42,30,32,24,20,73,53,25,30.35,30.28,30.22,10,10,10,10,6,,0.00,0,,30
2012-4-7,64,48,33,31,27,21,72,44,25,30.34,30.25,30.12,10,10,10,13,6,23,0.00,0,,204
2012-4-8,60,52,44,43,30,15,83,48,18,30.11,30.04,29.99,10,10,10,29,13,39,0.01,2,Rain,277
2012-4-9,61,48,36,32,25,15,76,45,19,30.01,29.88,29.79,10,10,10,23,8,32,0.00,2,,268
2012-4-10,46,40,35,29,26,20,78,59,34,30.03,29.91,29.86,10,10,6,23,14,30,0.00,7,Snow,308
2012-4-11,55,45,35,33,28,24,76,58,29,30.24,30.14,30.01,10,10,10,16,10,28,0.00,4,,353
2012-4-12,57,44,30,37,29,25,85,59,30,30.29,30.23,30.17,10,10,10,13,4,,0.00,1,,353
2012-4-13,64,48,32,33,29,26,79,50,27,30.28,30.22,30.11,10,10,10,9,6,,0.00,0,,140
2012-4-14,69,60,51,53,42,31,75,54,43,30.10,29.96,29.84,10,10,10,18,11,26,0.00,5,,207
2012-4-15,73,65,57,61,57,54,94,82,64,29.87,29.78,29.70,10,6,2,23,10,30,0.34,7,Rain,194
2012-4-16,69,56,41,61,49,27,93,67,48,30.11,29.71,29.54,10,9,2,33,19,50,0.44,7,Rain,223
2012-4-17,52,44,37,33,27,24,73,55,39,30.40,30.32,30.13,10,10,10,17,10,26,0.00,3,,279
2012-4-18,64,48,32,41,35,27,82,58,37,30.35,30.16,29.94,10,10,10,17,8,23,0.00,2,,165
2012-4-19,61,52,44,46,43,39,86,71,55,30.03,29.97,29.91,10,10,6,16,9,20,0.05,4,Rain,37
2012-4-20,46,42,37,43,39,34,93,87,79,29.97,29.82,29.71,10,6,2,21,14,28,0.54,7,Rain,25
2012-4-21,48,40,33,32,29,23,82,63,40,30.10,30.03,29.96,10,10,10,18,13,25,0.00,1,,31
2012-4-22,50,42,33,32,26,17,78,56,28,30.10,30.07,30.04,10,10,10,31,11,38,0.00,0,,24
2012-4-23,59,46,36,23,17,10,57,34,16,30.01,29.81,29.62,10,10,10,30,15,36,0.00,0,,340
2012-4-24,60,50,39,28,22,18,53,36,21,29.72,29.59,29.53,10,10,10,31,18,40,0.00,0,,310
2012-4-25,62,49,36,45,31,26,80,51,26,29.84,29.78,29.73,10,10,10,13,6,,0.00,2,Rain,258
2012-4-26,55,45,37,46,38,21,87,69,46,30.12,29.80,29.66,10,9,4,23,8,34,0.00,7,Rain,327
2012-4-27,57,42,28,33,22,16,78,48,22,30.27,30.21,30.14,10,10,10,15,10,18,0.00,0,,331
2012-4-28,48,42,35,32,24,17,70,52,31,30.30,30.27,30.25,10,10,10,15,7,,0.00,0,,85
2012-4-29,61,44,28,33,23,12,82,46,16,30.39,30.31,30.25,10,10,10,15,4,16,0.00,0,,56
2012-4-30,53,48,43,47,39,17,89,75,31,30.25,30.03,29.91,10,8,2,12,6,,0.28,8,Rain,79